Weather History for KLVK - October, 2013

Change the Weather History Date:

Thursday, October 3, 2013

  Actual Average Record
Temperature  
Mean Temperature 62 °F 66 °F  
Max Temperature 76 °F 80 °F 106 °F (1980)
Min Temperature 48 °F 52 °F 39 °F (1973)
Degree Days  
Heating Degree Days 3 1  
Month to date heating degree days 3 3  
Since 1 July heating degree days 7 27  
Cooling Degree Days 0 3  
Month to date cooling degree days 2 9  
Year to date cooling degree days 1011 798  
Growing Degree Days 12 (Base 50)    
Moisture  
Dew Point 33 °F    
Average Humidity 47    
Maximum Humidity 80    
Minimum Humidity 14    
Precipitation  
Precipitation 0.00 in 0.01 in 0.14 in (1967)
Month to date precipitation 0.00 0.04  
Year to date precipitation 2.59 10.17  
Since 1 July precipitation 0.47 0.27  
Sea Level Pressure  
Sea Level Pressure 30.00 in    
Wind  
Wind Speed 10 mph (NNW)    
Max Wind Speed 26 mph    
Max Gust Speed 37 mph    
Visibility 10 miles    
Events      
T = Trace of Precipitation, MM = Missing Value Source: NWS Daily Summary

Daily Weather History Graph

Daily Weather History Graph

Search for Another Location

Airport or City:

Trip Planner

Search our weather history database for the weather conditions in past years. The results will help you decide how hot, cold, wet, or windy it might be!

Date:

Astronomy

Oct. 03, 2013 Rise Set
Actual Time 7:04 AM PDT 6:46 PM PDT
Civil Twilight 6:38 AM PDT 7:12 PM PDT
Nautical Twilight 6:08 AM PDT 7:43 PM PDT
Astronomical Twilight 5:37 AM PDT 8:13 PM PDT
Moon 5:44 AM PDT (10/3) 5:57 PM PDT (10/3)
Length of Visible Light 12h 34m
Length of Day
11h 41m
Waning Crescent, 2% of the Moon is Illuminated
Oct 3
Waning Crescent
Oct 4
New
Oct 11
First Quarter
Oct 18
Full
Oct 26
Last Quarter

Hourly Weather History & Observations

Time (PDT) Temp. Dew Point Humidity Pressure Visibility Wind Dir Wind Speed Gust Speed Precip Events Conditions
12:53 AM 55.9 °F 46.0 °F 69% 30.01 in 10.0 mi Calm Calm - N/A   Clear
1:53 AM 53.1 °F 46.0 °F 77% 30.02 in 10.0 mi Calm Calm - N/A   Clear
2:53 AM 51.1 °F 44.1 °F 77% 30.02 in 10.0 mi Calm Calm - N/A   Clear
3:53 AM 51.1 °F 43.0 °F 74% 30.02 in 10.0 mi Calm Calm - N/A   Clear
4:53 AM 50.0 °F 43.0 °F 77% 30.03 in 10.0 mi Calm Calm - N/A   Clear
5:53 AM 48.9 °F 42.1 °F 77% 30.03 in 10.0 mi Calm Calm - N/A   Clear
6:53 AM 48.9 °F 42.1 °F 77% 30.04 in 10.0 mi Calm Calm - N/A   Clear
7:53 AM 51.1 °F 45.0 °F 80% 30.06 in 10.0 mi West 3.5 mph - N/A   Clear
8:53 AM 57.0 °F 46.9 °F 69% 30.06 in 10.0 mi Calm Calm - N/A   Clear
9:53 AM 64.0 °F 39.0 °F 40% 30.06 in 10.0 mi West 4.6 mph - N/A   Clear
10:53 AM 66.9 °F 33.1 °F 28% 30.06 in 10.0 mi Variable 4.6 mph - N/A   Clear
11:53 AM 71.1 °F 28.9 °F 21% 30.04 in 10.0 mi North 9.2 mph 17.3 mph N/A   Clear
12:53 PM 73.0 °F 27.0 °F 18% 30.01 in 10.0 mi NW 12.7 mph 20.7 mph N/A   Clear
1:53 PM 73.9 °F 25.0 °F 16% 29.99 in 10.0 mi NNW 12.7 mph - N/A   Clear
2:53 PM 75.0 °F 24.1 °F 15% 29.97 in 10.0 mi North 13.8 mph 20.7 mph N/A   Clear
3:53 PM 75.0 °F 23.0 °F 14% 29.96 in 10.0 mi NNE 20.7 mph 29.9 mph N/A   Clear
4:53 PM 73.9 °F 24.1 °F 16% 29.95 in 10.0 mi North 12.7 mph 26.5 mph N/A   Clear
5:53 PM 73.0 °F 25.0 °F 17% 29.94 in 10.0 mi North 12.7 mph 31.1 mph N/A   Clear
6:53 PM 71.1 °F 26.1 °F 19% 29.94 in 10.0 mi NNW 11.5 mph 20.7 mph N/A   Clear
7:53 PM 71.1 °F 25.0 °F 18% 29.94 in 10.0 mi North 19.6 mph 34.5 mph N/A   Clear
9:53 PM 71.1 °F 23.0 °F 16% 29.93 in 10.0 mi North 24.2 mph 35.7 mph N/A   Clear
10:53 PM 70.0 °F 21.9 °F 16% 29.95 in 10.0 mi North 17.3 mph 28.8 mph N/A   Clear
11:53 PM 70.0 °F 21.9 °F 16% 29.96 in 10.0 mi North 23.0 mph 32.2 mph N/A   Clear